963 visiteurs
Prévisions de votre ville :
Vigilance : 60 départements Mise à jour le 29/03/2020 à 16:13 - Voir la carte

Paris Roissy CDG (95380) le 29/03/2020 à 23:00 Choisir station

4.6°C 41 % NNE Rafales 59 km/h
Vit. moyenne 41 kmh/h

Relevés météo quotidiens pour la station de :

UTC
S: Synop
M: Metar
Loc T°C
(°C)
Td
(°C)
HR
(%)
Vis
(km)
Néb
(octa)
Vent
(km/h)
Pression
(mb)
Précipitations
(mm)
Temps
              MOY
10 min
DIR RAF 1h MESURE VAR SUR 3h    
S 00 h 01h 14.6 7.2 61 - 41 69 1022.6 -0.9/3h 0.0/6h - 0.0/3h -
S 01 h 02h 14.6 7.4 62 - 46 74 1022.2 -0.9/3h 0.0/1h -
S 02 h 03h 14.4 7.0 61 - 24 67 1021.6 -1.3/3h 0.0/1h -
S 03 h 04h 15.3 6.6 56 - 26 86 1020.7 -1.9/3h 0.0/3h -
S 04 h 05h 16.2 6.3 52 - 41 69 1020.6 -1.5/3h 0.0/1h -
S 05 h 06h 17.7 5.9 46 - 48 83 1020.4 -1.0/3h 0.0/1h -
S 06 h 07h 17.7 6.2 47 - 63 96 1020.1 -0.4/3h 0.0/12h - 0.0/3h - 0.0/24h -
S 07 h 08h 17.9 7.0 49 - 28 90 1020.3 -0.2/3h 0.0/1h -
S 08 h 09h 18.8 7.2 47 - 57 93 1020.4 0.0/3h 0.0/1h -
S 09 h 10h 18.9 8.2 50 20 6/8 63 96 1020.4 +0.3/3h 0.0/3h
S 10 h 11h 20.0 8.6 48 - 31 104 1019.7 -0.5/3h 0.0/1h -
S 11 h 12h 19.7 9.3 51 - 76 113 1019.4 -0.9/3h 0.0/1h -
S 12 h 13h 20.3 8.3 46 20 7/8 39 126 1018.0 -2.2/3h 0.0/6h - 0.0/3h
S 13 h 14h 18.5 8.7 53 - 83 124 1017.0 -2.7/3h 0.0/1h -
S 14 h 15h 18.5 8.7 53 - 80 124 1016.6 -2.8/3h 0.0/1h -
S 15 h 16h 18.3 8.5 53 20 7/8 41 126 1016.4 -1.7/3h 0.0/3h
S 16 h 17h 17.9 8.2 53 - 70 128 1016.3 -0.7/3h 0.0/1h -
S 17 h 18h 16.8 7.7 55 - 80 130 1015.6 -1.1/3h 0.0/1h -
S 18 h 19h 16.1 7.8 58 - 81 124 1015.7 -0.8/3h 0.0/12h - 0.0/3h -
S 19 h 20h 16.6 7.2 54 - 37 122 1016.3 -0.1/3h 0.0/1h -
S 20 h 21h 16.3 7.2 55 - 78 119 1016.3 +0.7/3h 0.0/1h -
S 21 h 22h 16.3 7.0 54 - 39 122 1016.7 +1.0/3h 0.0/3h -
S 22 h 23h 16.3 7.0 54 - 35 115 1017.0 +0.6/3h 0.0/1h -
S 23 h 00h 16.2 6.6 53 - 31 112 1016.9 +0.5/3h 0.0/1h -
evolution des temperatures
cumul des precipitations
vent moyen et rafales
pression atmospherique

Un tiret (-) signifie que les données ne sont pas disponibles.

Passez la souris sur les pictos temps pour avoir plus de précisions. Passez les flèches sur l'icône de la direction du vent pour voir la direction précise en degrés.

Les données de l'heure en cours sont disponibles à partir de H+15 minutes.


S signifie station Synop, plus complète qu'une station Metar (M). Il y a +1h de différence entre l'heure UTC et l'heure légale en hiver et +2h en été.

Td est la mesure du point de rosée.

HR est l'humidité relative/p>

Vis est la visibilité

Néb est la nébulosité du ciel (couverture nuageuse) exprimée en octas (de 0/8 à 8/8).

Vent moy 10 min donne le vent moyen sur les 10 minutes qui précèdent le relevé.

Vent raf 1h donne la rafale maximale mesurée dans l'heure qui précède le relevé.


Les données les plus anciennes remontent à avril 2014.

Les données présentées sur cette page proviennent des stations météo officielles. Les relevés sont effectués aux normes en vigueur (anémomètre à 10m de haut, thermomètre sous abri normalisé à 2m du sol...)

Météo 60 décline toute responsabilité en cas d'absence de données, d'erreurs, de mauvaise utilisation ou interprétation et n'est pas habilité à fournir des certificats intempéries.